[[{"header":{"parameterUnit":"m.s-1","parameterCategory":1,"la1":30.2991,"la2":30.254,"lo1":-89.0895,"lo2":-89.0444,"dy":0.0017,"dx":0.0017,"nx":28,"ny":28,"refTime":"2024-12-02T09:00:00:Z","depth":0,"parameterNumber":2,"parameterNumberName":"U-component_of_WINDS"},"data":[0,0,0,0,0,0,0,0,0,0,0,0,0,0,0,0,0,0,0,0,0,0,0,0,0,0,0,0,0,0,0,0,0,0,0,0,0,0,0,0,0,0,0,0,0,0,0,0,0,0,0,0,0,0,0,0,0,0,-2.2059,-2.2059,0,-2.21,-2.2101,-2.2101,-2.2055,-2.2053,-2.2052,-2.205,-2.2093,-2.2095,-2.2098,0,0,0,0,0,0,0,0,0,0,0,0,0,-2.1938,-2.194,-2.2059,-2.2059,-2.206,-2.21,-2.2101,-2.2102,-2.2055,-2.2053,-2.2051,-2.2049,-2.2092,-2.2095,-2.2098,0,0,0,0,0,0,0,0,0,0,0,0,0,-2.1986,-2.1941,-2.2059,-2.2042,-2.2041,-2.21,-2.2101,-2.2102,-2.2056,-2.2053,-2.2051,-2.2048,-2.2091,-2.2095,-2.2099,-2.2177,0,0,-2.2111,-2.2113,0,0,0,0,0,0,0,0,-2.1984,-2.1991,-2.2044,-2.2043,-2.2042,-2.207,-2.2074,-2.2127,-2.2057,-2.205,-2.205,-2.2047,-2.2087,-2.2091,-2.2105,-2.2179,-2.2181,-2.2112,-2.2114,-2.2116,-2.2117,0,0,0,0,0,0,0,-2.198,-2.1989,-2.2075,-2.2044,-2.2043,-2.2032,-2.2036,-2.2084,-2.2083,-2.205,-2.2047,-2.2053,-2.2086,-2.2101,-2.2106,-2.2182,-2.2112,-2.2115,-2.2118,-2.212,-2.232,-2.2323,0,0,0,0,0,0,-2.1979,-2.1986,-2.2074,-2.2076,-2.2006,-2.2036,-2.204,-2.2064,-2.2082,-2.2083,-2.2055,-2.205,-2.2095,-2.2101,-2.2107,-2.2199,-2.2116,-2.212,-2.2122,-2.2317,-2.2321,-2.2324,0,0,0,0,0,0,-2.1977,-2.1987,-2.2072,-2.203,-2.204,-2.2041,-2.2067,-2.2066,-2.2081,-2.2086,-2.2085,-2.2071,-2.2093,-2.2101,-2.216,-2.22,-2.2122,-2.2126,-2.2314,-2.2318,-2.2322,-2.2384,0,0,0,0,0,0,-2.1973,-2.1987,-2.2017,-2.2031,-2.2043,-2.2125,-2.207,-2.2068,-2.2088,-2.2082,-2.21,-2.2101,-2.2092,-2.2154,-2.2164,-2.2204,-2.2129,-2.231,-2.2316,-2.2321,-2.2378,-2.239,-2.24,0,0,0,0,0,-2.1969,-2.2033,-2.2019,-2.2029,-2.2081,-2.2127,-2.2134,-2.2123,-2.2091,-2.2121,-2.2124,-2.21,-2.2194,-2.216,-2.2171,-2.2213,-2.2308,-2.2314,-2.2321,-2.2374,-2.2388,-2.2399,0,0,0,0,0,0,-2.2023,-2.2035,-2.2019,-2.2089,-2.2108,-2.2119,-2.2157,-2.2138,-2.2165,-2.2159,-2.2144,-2.2148,-2.221,-2.2218,-2.218,-2.2289,-2.2246,-2.2255,-2.2282,-2.2295,-2.2306,-2.2303,-2.2132,0,0,0,0,0,-2.2043,-2.2081,-2.2088,-2.215,-2.216,-2.2157,-2.2177,-2.2166,-2.2185,-2.2192,-2.22,-2.2218,-2.2251,-2.2274,-2.2305,-2.2379,-2.2382,-2.2413,-2.2424,-2.2433,-2.244,-2.2479,-2.2493,-2.2345,-2.2345,-2.2345,0,0,-2.2085,-2.2096,-2.2121,-2.2161,-2.2174,-2.2212,-2.2164,-2.2207,-2.2234,-2.2199,-2.2254,-2.226,-2.228,-2.2346,-2.2376,-2.2354,-2.2482,-2.2441,-2.2448,-2.2451,-2.2487,-2.2501,-2.2513,-2.2349,-2.2348,-2.2348,0,0,-2.2181,-2.2194,-2.2245,-2.2259,-2.2279,-2.2277,-2.2289,-2.2304,-2.2306,-2.2361,-2.2335,-2.2368,-2.2426,-2.2441,-2.2456,-2.2556,-2.2534,-2.2566,-2.2622,-2.2659,-2.2671,-2.2681,-2.2715,-2.2728,-2.2574,-2.2574,-2.2574,0,-2.2231,-2.2288,-2.2275,-2.2319,-2.2337,-2.2306,-2.2358,-2.2372,-2.2401,-2.2414,-2.2389,-2.2461,-2.2472,-2.254,-2.2564,-2.2578,-2.2591,-2.2564,-2.267,-2.268,-2.269,-2.2722,-2.2736,-2.2578,-2.2577,-2.2577,-2.2577,0,-2.2347,-2.2387,-2.2426,-2.2455,-2.2477,-2.2525,-2.2519,-2.2543,-2.253,-2.253,-2.2586,-2.2598,-2.2631,-2.2646,-2.2635,-2.2713,-2.2699,-2.2673,-2.2628,-2.2708,-2.2738,-2.2751,-2.2583,-2.2582,-2.2581,-2.258,0,0,-2.2479,-2.2499,-2.2513,-2.2525,-2.2544,-2.2575,-2.2621,-2.2652,-2.2673,-2.2694,-2.2731,-2.2781,-2.2756,-2.2773,-2.2763,-2.2796,-2.2873,-2.2765,-2.2766,-2.2784,-2.2958,-2.2977,-2.2992,-2.2858,-2.2861,-2.2863,-2.2956,0,-2.2574,-2.2654,-2.2643,-2.272,-2.2755,-2.2726,-2.2766,-2.2781,-2.2782,-2.2812,-2.2813,-2.2848,-2.2814,-2.2823,-2.2855,-2.2857,-2.2907,-2.285,-2.2892,-2.2894,-2.2888,-2.3008,-2.3029,-2.3116,-2.2968,-2.297,-2.2971,0,-2.2697,-2.2721,-2.2802,-2.2814,-2.2828,-2.2864,-2.2891,-2.2921,-2.2938,-2.2936,-2.2954,-2.2938,-2.2983,-2.2938,-2.3,-2.2961,-2.2977,-2.2981,-2.2984,-2.2987,-2.2937,-2.3014,-2.3144,-2.3157,-2.299,-2.2989,-2.2987,0,-2.2784,-2.2837,-2.2891,-2.2903,-2.2919,-2.2944,-2.2952,-2.2966,-2.2985,-2.3009,-2.3021,-2.305,-2.3066,-2.3088,-2.3079,-2.3047,-2.3142,-2.3097,-2.3141,-2.3141,-2.3162,-2.316,-2.3296,-2.3174,-2.3174,-2.3173,-2.3173,0,-2.2891,-2.2941,-2.293,-2.2964,-2.3018,-2.3004,-2.3059,-2.3063,-2.3075,-2.3109,-2.3085,-2.3117,-2.3103,-2.3134,-2.3127,-2.3178,-2.3186,-2.3185,-2.3182,-2.3187,-2.3187,-2.3197,-2.319,-2.3177,-2.3176,-2.3175,-2.3175,0,-2.2997,-2.2992,-2.3049,-2.3059,-2.3063,-2.3103,-2.3111,-2.3142,-2.314,-2.3183,-2.3192,-2.3189,-2.3224,-2.3217,-2.3256,-2.3251,-2.3315,-2.3305,-2.3309,-2.3306,-2.3351,-2.3346,-2.3497,-2.3515,-2.3382,-2.3383,-2.3385,0,-2.3066,-2.3103,-2.3117,-2.3137,-2.3147,-2.318,-2.3199,-2.3187,-2.3208,-2.3229,-2.3257,-2.3289,-2.3314,-2.3371,-2.3372,-2.3401,-2.3391,-2.3442,-2.3395,-2.3398,-2.3391,-2.3388,-2.3391,-2.3451,-2.3453,-2.3454,-2.3455,0,-2.3187,-2.3183,-2.3211,-2.3239,-2.3262,-2.3283,-2.3302,-2.332,-2.3309,-2.3333,-2.3368,-2.3388,-2.3426,-2.3458,-2.3484,-2.3492,-2.3471,-2.347,-2.3481,-2.3485,-2.3486,-2.3485,-2.3333,-2.3466,-2.3465,-2.3464,-2.3464,-2.3463,-2.3276,-2.3308,-2.3322,-2.3354,-2.3367,-2.3384,-2.3413,-2.3415,-2.3444,-2.3474,-2.3465,-2.3504,-2.3519,-2.3552,-2.3562,-2.3592,-2.3573,-2.359,-2.3594,-2.3599,-2.3603,-2.3481,-2.3597,-2.3597,-2.3597,-2.3596,-2.3596,0,-2.3396,-2.3403,-2.3433,-2.3459,-2.3485,-2.3463,-2.3482,-2.3504,-2.3539,-2.3554,-2.3579,-2.3619,-2.3649,-2.3653,-2.3681,-2.3705,-2.3696,-2.3712,-2.371,-2.3712,-2.3619,-2.3606,-2.3719,-2.3719,-2.3719,-2.3719,-2.3719,-2.3719,-2.3461,-2.3512,-2.3509,-2.3566,-2.3573,-2.3611,-2.3624,-2.364,-2.3652,-2.3697,-2.3722,-2.3724,-2.3734,-2.3763,-2.379,-2.379,-2.3801,-2.3821,-2.3817,-2.3731,-2.3719,-2.3707,-2.3694,-2.3824,-2.3824,-2.3907,-2.3908,-2.3909]},{"header":{"parameterUnit":"m.s-1","parameterCategory":1,"la1":30.2991,"la2":30.254,"lo1":-89.0895,"lo2":-89.0444,"dy":0.0017,"dx":0.0017,"nx":28,"ny":28,"refTime":"2024-12-02T09:00:00:Z","depth":0,"parameterNumber":3,"parameterNumberName":"V-component_of_WINDS"},"data":[0,0,0,0,0,0,0,0,0,0,0,0,0,0,0,0,0,0,0,0,0,0,0,0,0,0,0,0,0,0,0,0,0,0,0,0,0,0,0,0,0,0,0,0,0,0,0,0,0,0,0,0,0,0,0,0,0,0,-3.9329,-3.933,0,-3.9396,-3.9397,-3.9398,-3.9351,-3.9349,-3.9347,-3.9345,-3.941,-3.9414,-3.9417,0,0,0,0,0,0,0,0,0,0,0,0,0,-3.9156,-3.916,-3.9329,-3.933,-3.9331,-3.9396,-3.9397,-3.9398,-3.9352,-3.9349,-3.9347,-3.9344,-3.9409,-3.9413,-3.9418,0,0,0,0,0,0,0,0,0,0,0,0,0,-3.9228,-3.9161,-3.9329,-3.9316,-3.9315,-3.9396,-3.9397,-3.9398,-3.9352,-3.9349,-3.9346,-3.9343,-3.9408,-3.9413,-3.9418,-3.9515,0,0,-3.9435,-3.9437,0,0,0,0,0,0,0,0,-3.9224,-3.9234,-3.9317,-3.9317,-3.9316,-3.9362,-3.936,-3.9437,-3.9353,-3.9338,-3.9345,-3.9342,-3.9397,-3.9403,-3.9422,-3.9518,-3.952,-3.9436,-3.9439,-3.9441,-3.9443,0,0,0,0,0,0,0,-3.9219,-3.9231,-3.9355,-3.9318,-3.9318,-3.9305,-3.9312,-3.9374,-3.9384,-3.9339,-3.9336,-3.9345,-3.9396,-3.9417,-3.9423,-3.9521,-3.9435,-3.944,-3.9444,-3.9446,-3.9697,-3.97,0,0,0,0,0,0,-3.9216,-3.9227,-3.9353,-3.9358,-3.9262,-3.931,-3.9318,-3.9351,-3.9383,-3.9385,-3.9347,-3.9342,-3.9409,-3.9417,-3.9425,-3.9538,-3.9441,-3.9446,-3.945,-3.9693,-3.9697,-3.9701,0,0,0,0,0,0,-3.9212,-3.9228,-3.9351,-3.9292,-3.9306,-3.9317,-3.9354,-3.9354,-3.9375,-3.9389,-3.939,-3.9367,-3.9407,-3.9418,-3.9492,-3.954,-3.9449,-3.9454,-3.9689,-3.9694,-3.9699,-3.9767,0,0,0,0,0,0,-3.9208,-3.9227,-3.9265,-3.9293,-3.931,-3.9418,-3.9357,-3.9357,-3.9385,-3.9379,-3.9408,-3.941,-3.9405,-3.9484,-3.9498,-3.9546,-3.9458,-3.9685,-3.9692,-3.9698,-3.976,-3.9773,-3.9785,0,0,0,0,0,-3.9202,-3.9281,-3.9267,-3.9282,-3.9358,-3.9421,-3.9431,-3.9424,-3.9389,-3.9426,-3.9435,-3.9409,-3.9533,-3.9493,-3.9507,-3.9558,-3.9682,-3.969,-3.9697,-3.9755,-3.9771,-3.9784,0,0,0,0,0,0,-3.9256,-3.9284,-3.9269,-3.936,-3.9389,-3.9413,-3.946,-3.9442,-3.9481,-3.9473,-3.9462,-3.947,-3.9548,-3.956,-3.9515,-3.9651,-3.9602,-3.9612,-3.964,-3.9656,-3.9668,-3.9662,-3.9463,0,0,0,0,0,-3.9279,-3.933,-3.9351,-3.9429,-3.9444,-3.945,-3.9478,-3.947,-3.9499,-3.9511,-3.9525,-3.9553,-3.9598,-3.9628,-3.967,-3.9762,-3.9766,-3.9804,-3.9816,-3.9826,-3.9835,-3.9882,-3.9899,-3.9726,-3.9726,-3.9726,0,0,-3.9327,-3.9348,-3.9381,-3.9441,-3.9462,-3.9513,-3.9461,-3.9517,-3.9554,-3.9519,-3.959,-3.9602,-3.9632,-3.9716,-3.9753,-3.9728,-3.9884,-3.9836,-3.9843,-3.9847,-3.9892,-3.9908,-3.9923,-3.9731,-3.973,-3.9729,0,0,-3.9439,-3.9461,-3.9528,-3.955,-3.9584,-3.9587,-3.9603,-3.963,-3.9637,-3.9709,-3.9682,-3.9726,-3.9804,-3.9826,-3.9847,-3.9967,-3.9943,-3.9981,-4.0044,-4.009,-4.0104,-4.0116,-4.0157,-4.0172,-3.999,-3.999,-3.999,0,-3.9493,-3.9571,-3.9564,-3.9623,-3.9649,-3.962,-3.9686,-3.9707,-3.9752,-3.977,-3.9743,-3.9839,-3.9857,-3.9944,-3.9973,-3.9992,-4.0009,-3.9977,-4.0103,-4.0115,-4.0126,-4.0164,-4.018,-3.9994,-3.9994,-3.9993,-3.9993,0,-3.9635,-3.9689,-3.9738,-3.9783,-3.9815,-3.9877,-3.9878,-3.991,-3.99,-3.9905,-3.9978,-3.9999,-4.0044,-4.0064,-4.0055,-4.015,-4.0133,-4.0105,-4.0054,-4.0147,-4.0183,-4.0198,-4.0,-3.9999,-3.9997,-3.9996,0,0,-3.9784,-3.9824,-3.9842,-3.9861,-3.9895,-3.9936,-3.9996,-4.0041,-4.0068,-4.01,-4.0148,-4.0214,-4.0188,-4.0212,-4.0204,-4.0245,-4.0336,-4.0211,-4.0212,-4.0232,-4.044,-4.046,-4.0478,-4.0321,-4.0324,-4.0327,-4.0437,0,-3.9896,-4.0002,-3.9997,-4.0095,-4.0143,-4.0116,-4.0167,-4.0193,-4.02,-4.024,-4.0246,-4.0293,-4.0255,-4.027,-4.0309,-4.0317,-4.0377,-4.0309,-4.0364,-4.0366,-4.0356,-4.0497,-4.0519,-4.0622,-4.0451,-4.0453,-4.0455,0,-4.0042,-4.0079,-4.0183,-4.0208,-4.0228,-4.0275,-4.0315,-4.0355,-4.0382,-4.0384,-4.0411,-4.0396,-4.0454,-4.0403,-4.0482,-4.0436,-4.0458,-4.0465,-4.0469,-4.0473,-4.0416,-4.0503,-4.0655,-4.067,-4.0477,-4.0476,-4.0474,0,-4.0138,-4.0214,-4.0285,-4.0303,-4.0335,-4.0368,-4.0382,-4.0407,-4.0434,-4.0468,-4.0485,-4.0526,-4.0548,-4.0579,-4.0574,-4.0538,-4.0654,-4.0603,-4.0655,-4.0655,-4.068,-4.0678,-4.0836,-4.0697,-4.0697,-4.0697,-4.0696,0,-4.0264,-4.0327,-4.0328,-4.0372,-4.0442,-4.0435,-4.0503,-4.0514,-4.0536,-4.058,-4.0558,-4.0599,-4.0592,-4.0633,-4.063,-4.0694,-4.0705,-4.0706,-4.0704,-4.0708,-4.0707,-4.0721,-4.0713,-4.0701,-4.07,-4.0699,-4.0698,0,-4.0382,-4.0386,-4.0461,-4.0485,-4.0493,-4.0543,-4.0562,-4.0603,-4.0607,-4.0663,-4.0675,-4.0682,-4.0728,-4.0727,-4.078,-4.0778,-4.0857,-4.0848,-4.0848,-4.0845,-4.0897,-4.0892,-4.1068,-4.109,-4.0938,-4.094,-4.0941,0,-4.0462,-4.051,-4.0539,-4.0567,-4.0584,-4.063,-4.0658,-4.0652,-4.0681,-4.0715,-4.0751,-4.0796,-4.0831,-4.0906,-4.0915,-4.0954,-4.0945,-4.1004,-4.095,-4.0951,-4.0944,-4.094,-4.0944,-4.1014,-4.1016,-4.1017,-4.1018,0,-4.0601,-4.06,-4.0641,-4.0683,-4.0716,-4.0748,-4.0778,-4.0801,-4.0799,-4.0832,-4.088,-4.0907,-4.0961,-4.1005,-4.1043,-4.1056,-4.1036,-4.1035,-4.1049,-4.1052,-4.1049,-4.105,-4.0875,-4.1031,-4.1029,-4.1029,-4.1028,-4.1027,-4.0701,-4.0742,-4.0769,-4.0815,-4.0837,-4.0864,-4.0903,-4.0912,-4.0952,-4.0996,-4.099,-4.1043,-4.1067,-4.1117,-4.1133,-4.1173,-4.1152,-4.1173,-4.1177,-4.1182,-4.1187,-4.1044,-4.118,-4.118,-4.1179,-4.1179,-4.1179,0,-4.0838,-4.0854,-4.0897,-4.0939,-4.0974,-4.0954,-4.0985,-4.1015,-4.1062,-4.1087,-4.1123,-4.1177,-4.1219,-4.1231,-4.1271,-4.13,-4.1292,-4.1311,-4.1308,-4.1311,-4.1205,-4.1188,-4.1317,-4.1317,-4.1317,-4.1317,-4.1317,-4.1317,-4.0914,-4.0982,-4.0984,-4.1061,-4.1076,-4.1129,-4.1148,-4.1172,-4.1192,-4.1254,-4.1289,-4.1297,-4.1316,-4.1357,-4.1394,-4.1396,-4.1411,-4.1434,-4.1432,-4.1332,-4.1319,-4.1305,-4.1289,-4.1438,-4.1438,-4.1535,-4.1536,-4.1536]}]]